Location: ?????????
(54.7630°N, 39.4991°E)
Time: 06:59:46
(UTC+00:00)

Cosmos 1331 Rocket - Pass Details

Date: 14 April 2026
Orbit: 746 x 772 km, 74.0° (Epoch: 12 May)

Event Time Altitude Azimuth Distance (km) Brightness Sun altitude
Exits shadow 23:41:55 34° 244° (WSW) 1,264 4.6 -19.2°
Maximum altitude 23:43:59 55° 304° (WNW) 933 4.4 -19.0°
Drops below altitude 10° 23:49:10 10° 22° (NNE) 2,323 7.6 -18.6°
Sets 23:51:37 0° 27° (NNE) 3,250 8.8 -18.3°
